TimeCDT,TemperatureF,Dew PointF,Humidity,Sea Level PressureIn,VisibilityMPH,Wind Direction,Wind SpeedMPH,Gust SpeedMPH,PrecipitationIn,Events,Conditions,WindDirDegrees,DateUTC
12:15 AM,76.3,69.3,79,29.88,10.0,NE,4.6,-,N/A,,Clear,50,2013-07-23 05:15:00
12:35 AM,75.9,69.1,79,29.89,10.0,NE,3.5,-,N/A,,Clear,50,2013-07-23 05:35:00
12:55 AM,76.1,68.0,76,29.89,10.0,NE,5.8,-,N/A,,Clear,50,2013-07-23 05:55:00
1:15 AM,76.1,65.7,70,29.88,10.0,ENE,5.8,-,N/A,,Clear,60,2013-07-23 06:15:00
1:35 AM,75.0,64.6,70,29.89,10.0,Calm,Calm,-,N/A,,Clear,0,2013-07-23 06:35:00
1:55 AM,73.4,64.4,73,29.90,10.0,Calm,Calm,-,N/A,,Clear,0,2013-07-23 06:55:00
2:15 AM,74.1,64.4,72,29.90,10.0,Calm,Calm,-,N/A,,Clear,0,2013-07-23 07:15:00
2:35 AM,70.7,64.2,80,29.88,10.0,ENE,4.6,-,N/A,,Clear,60,2013-07-23 07:35:00
2:55 AM,71.2,64.4,79,29.88,10.0,East,3.5,-,N/A,,Clear,80,2013-07-23 07:55:00
3:15 AM,71.2,64.0,78,29.87,10.0,Calm,Calm,-,N/A,,Clear,0,2013-07-23 08:15:00
3:35 AM,69.6,63.9,82,29.87,10.0,Calm,Calm,-,N/A,,Clear,0,2013-07-23 08:35:00
3:55 AM,70.7,63.5,78,29.86,10.0,Calm,Calm,-,N/A,,Clear,0,2013-07-23 08:55:00
4:15 AM,71.1,63.3,76,29.87,10.0,Calm,Calm,-,N/A,,Clear,0,2013-07-23 09:15:00
4:35 AM,70.0,63.0,78,29.88,10.0,NE,3.5,-,N/A,,Clear,40,2013-07-23 09:35:00
4:55 AM,69.4,62.6,79,29.88,10.0,North,3.5,-,N/A,,Clear,350,2013-07-23 09:55:00
5:15 AM,69.6,62.6,78,29.87,10.0,Calm,Calm,-,N/A,,Clear,0,2013-07-23 10:15:00
5:35 AM,70.0,62.8,78,29.94,10.0,NNW,17.3,33.4,N/A,,Scattered Clouds,340,2013-07-23 10:35:00
5:55 AM,72.7,61.9,69,29.98,10.0,NNW,21.9,35.7,N/A,,Mostly Cloudy,340,2013-07-23 10:55:00
6:15 AM,71.6,61.3,70,29.99,10.0,NNW,15.0,29.9,N/A,Thunderstorm,Mostly Cloudy,340,2013-07-23 11:15:00
6:35 AM,70.7,59.7,68,29.99,10.0,North,12.7,27.6,N/A,Rain-Thunderstorm,Light Thunderstorms and Rain,10,2013-07-23 11:35:00
6:55 AM,68.4,60.8,77,29.96,10.0,North,19.6,-,N/A,Rain,Light Rain,360,2013-07-23 11:55:00
7:15 AM,67.1,61.2,81,29.93,10.0,NNE,10.4,24.2,0.01,Rain,Light Rain,30,2013-07-23 12:15:00
7:35 AM,67.5,61.2,80,29.95,10.0,NE,3.5,-,0.01,Thunderstorm,Scattered Clouds,50,2013-07-23 12:35:00
7:55 AM,67.6,61.3,80,29.97,10.0,Calm,Calm,-,0.02,Rain-Thunderstorm,Heavy Thunderstorms and Rain,0,2013-07-23 12:55:00
8:15 AM,67.6,62.2,83,29.96,10.0,South,4.6,-,N/A,,Scattered Clouds,170,2013-07-23 13:15:00
8:35 AM,68.2,62.6,82,29.95,10.0,Calm,Calm,-,N/A,,Scattered Clouds,0,2013-07-23 13:35:00
8:55 AM,68.4,62.6,82,29.93,10.0,SSE,5.8,-,N/A,Thunderstorm,Thunderstorm,150,2013-07-23 13:55:00
9:15 AM,68.4,63.0,83,30.04,10.0,North,11.5,20.7,N/A,Thunderstorm,Overcast,350,2013-07-23 14:15:00
9:35 AM,66.6,63.0,88,30.00,1.2,South,6.9,-,0.33,Rain-Thunderstorm,Heavy Thunderstorms and Rain,180,2013-07-23 14:35:00
9:55 AM,66.4,63.0,89,29.90,7.0,SSE,17.3,20.7,0.39,Rain-Thunderstorm,Light Thunderstorms and Rain,160,2013-07-23 14:55:00
10:15 AM,67.6,63.1,85,29.93,10.0,South,8.1,-,N/A,,Clear,180,2013-07-23 15:15:00
10:35 AM,68.4,63.5,84,29.92,10.0,South,4.6,-,N/A,,Clear,170,2013-07-23 15:35:00
10:55 AM,69.4,63.7,82,29.90,10.0,South,8.1,-,N/A,Thunderstorm,Clear,190,2013-07-23 15:55:00
11:15 AM,72.7,64.2,75,29.90,10.0,SE,3.5,-,N/A,,Clear,130,2013-07-23 16:15:00
11:35 AM,74.7,65.8,74,29.91,10.0,NE,8.1,-,N/A,,Clear,40,2013-07-23 16:35:00
11:55 AM,76.5,66.2,70,29.93,10.0,NE,9.2,-,N/A,,Clear,50,2013-07-23 16:55:00
12:15 PM,76.3,65.5,69,29.94,10.0,NE,11.5,-,N/A,,Clear,40,2013-07-23 17:15:00
12:35 PM,77.4,66.0,68,29.94,10.0,NNE,10.4,-,N/A,,Clear,20,2013-07-23 17:35:00
12:55 PM,77.4,66.0,68,29.96,10.0,NNE,11.5,-,N/A,,Clear,20,2013-07-23 17:55:00
1:15 PM,79.7,66.4,64,29.94,10.0,NNE,11.5,-,N/A,,Clear,30,2013-07-23 18:15:00
1:35 PM,81.3,64.8,57,29.94,10.0,NE,10.4,-,N/A,,Clear,40,2013-07-23 18:35:00
1:55 PM,80.8,63.0,54,29.93,10.0,NE,6.9,-,N/A,,Clear,50,2013-07-23 18:55:00
2:15 PM,82.4,63.5,53,29.94,10.0,East,9.2,-,N/A,,Clear,80,2013-07-23 19:15:00
2:35 PM,81.1,63.9,56,29.93,10.0,East,9.2,-,N/A,,Clear,100,2013-07-23 19:35:00
3:15 PM,81.0,65.5,59,29.95,10.0,NNE,9.2,-,N/A,,Clear,30,2013-07-23 20:15:00
3:35 PM,82.8,66.0,57,29.95,10.0,ENE,9.2,-,N/A,,Clear,60,2013-07-23 20:35:00
3:55 PM,84.2,65.7,54,29.95,10.0,NNE,11.5,-,N/A,,Clear,30,2013-07-23 20:55:00
4:15 PM,83.5,67.5,58,29.95,10.0,NNE,12.7,-,N/A,,Scattered Clouds,30,2013-07-23 21:15:00
4:35 PM,82.2,66.9,60,29.96,10.0,NE,11.5,17.3,N/A,,Scattered Clouds,40,2013-07-23 21:35:00
4:55 PM,80.8,66.4,61,29.96,10.0,NE,12.7,16.1,N/A,,Clear,50,2013-07-23 21:55:00
5:15 PM,79.7,66.2,63,29.96,10.0,ENE,11.5,-,N/A,,Clear,60,2013-07-23 22:15:00
5:35 PM,81.5,67.5,62,29.96,10.0,NE,10.4,16.1,N/A,,Clear,40,2013-07-23 22:35:00
5:55 PM,80.8,67.6,64,29.95,10.0,NE,11.5,-,N/A,,Clear,40,2013-07-23 22:55:00
6:15 PM,80.6,67.3,64,29.95,10.0,ENE,11.5,-,N/A,,Clear,60,2013-07-23 23:15:00
6:35 PM,79.2,66.7,66,29.95,10.0,ENE,12.7,-,N/A,,Clear,60,2013-07-23 23:35:00
6:55 PM,78.8,66.7,66,29.95,10.0,ENE,15.0,-,N/A,,Clear,60,2013-07-23 23:55:00
7:15 PM,77.9,65.5,65,29.95,10.0,ENE,10.4,-,N/A,,Clear,60,2013-07-24 00:15:00
7:35 PM,77.5,65.7,67,29.95,10.0,NE,10.4,-,N/A,,Clear,50,2013-07-24 00:35:00
7:55 PM,77.0,66.0,69,29.95,10.0,ENE,9.2,-,N/A,,Clear,60,2013-07-24 00:55:00
8:15 PM,76.1,66.2,71,29.95,10.0,ENE,6.9,-,N/A,,Clear,60,2013-07-24 01:15:00
8:35 PM,74.8,66.4,75,29.96,10.0,ENE,4.6,-,N/A,,Clear,60,2013-07-24 01:35:00
8:55 PM,73.4,66.6,79,29.95,10.0,Calm,Calm,-,N/A,,Clear,0,2013-07-24 01:55:00
9:15 PM,72.5,66.6,82,29.97,10.0,NE,3.5,-,N/A,,Clear,40,2013-07-24 02:15:00
9:35 PM,71.6,66.4,84,29.98,10.0,NNE,3.5,-,N/A,,Clear,30,2013-07-24 02:35:00
9:55 PM,70.2,65.8,86,29.98,10.0,Calm,Calm,-,N/A,,Clear,0,2013-07-24 02:55:00
10:15 PM,69.8,66.0,88,29.98,10.0,Calm,Calm,-,N/A,,Clear,0,2013-07-24 03:15:00
10:35 PM,69.3,65.5,88,29.99,10.0,Calm,Calm,-,N/A,,Clear,0,2013-07-24 03:35:00
10:55 PM,68.7,65.3,89,29.99,10.0,Calm,Calm,-,N/A,,Clear,0,2013-07-24 03:55:00
11:15 PM,67.8,64.8,90,30.00,7.0,Calm,Calm,-,N/A,,Clear,0,2013-07-24 04:15:00
11:35 PM,68.0,64.6,89,30.01,7.0,Calm,Calm,-,N/A,,Clear,0,2013-07-24 04:35:00
11:55 PM,68.5,65.7,90,30.00,7.0,Calm,Calm,-,N/A,,Mostly Cloudy,0,2013-07-24 04:55:00